User: anonymous   Login
Location: Melbourne
(37.8170°S, 144.9670°E)
Time: 21:46:50
(UTC+10:00)
Language:

ERBS - Orbit

View from above orbital plane
View from above orbital plane
View from above satellite
View from above satellite

Ground track
Ground track

The orbit data is extracted from the following two-line orbital elements,

1 15354U 84108B   16182.45866884  .00001698  00000-0  49843-4 0  9992
2 15354  57.0077 209.7804 0014667 135.8755 224.3472 15.41000074743936
Epoch (UTC): 30 June 2016 11:00:28
Eccentricity: 0.0014667
inclination: 57.0077°
perigee height: 433 km
apogee height: 453 km
right ascension of ascending node: 209.7804°
argument of perigee: 135.8755°
revolutions per day: 15.41000074
mean anomaly at epoch: 224.3472°
orbit number at epoch: 74393

The dashed part of the orbit path shows where the satellite is in the earth's shadow,  

DLR